| time (UTC) | temp F | wind direction | speed MPH | gust MPH | rain 1hr in | rain 24hr in | rain mn in | humidity % | barometer mb |
| 20260902104527 | 65 | 257 | 6.0 | 12.0 | 0.00 | 0.00 | 0.00 | 59 | 1008.0 |
| 20260902103526 | 64 | 264 | 5.0 | 10.0 | 0.00 | 0.00 | 0.00 | 61 | 1008.0 |
| 20260902102525 | 64 | 280 | 6.0 | 10.0 | 0.00 | 0.00 | 0.00 | 59 | 1008.0 |
| 20260902101524 | 64 | 284 | 5.0 | 10.0 | 0.00 | 0.00 | 0.00 | 58 | 1008.0 |
| 20260902100524 | 63 | 284 | 4.0 | 8.0 | 0.00 | 0.00 | 0.00 | 63 | 1007.9 |
| 20260902095522 | 63 | 306 | 4.0 | 9.0 | 0.00 | 0.00 | 0.00 | 65 | 1007.9 |
| 20260902094522 | 62 | 287 | 5.0 | 9.0 | 0.00 | 0.00 | 0.00 | 66 | 1007.9 |
| 20260902093540 | 62 | 308 | 3.0 | 7.0 | 0.00 | 0.00 | 0.00 | 67 | 1007.9 |
| 20260902092519 | 61 | 292 | 3.0 | 7.0 | 0.00 | 0.00 | 0.00 | 69 | 1008.0 |
| 20260902091518 | 61 | 303 | 4.0 | 8.0 | 0.00 | 0.00 | 0.00 | 69 | 1008.0 |
| 20260902090519 | 61 | 291 | 3.0 | 8.0 | 0.00 | 0.00 | 0.00 | 71 | 1008.0 |
| 20260902085518 | 60 | 309 | 3.0 | 7.0 | 0.00 | 0.00 | 0.00 | 71 | 1008.0 |
| 20260902084607 | 59 | 296 | 4.0 | 7.0 | 0.00 | 0.00 | 0.00 | 73 | 1008.1 |
| 20260902083546 | 60 | 312 | 3.0 | 6.0 | 0.00 | 0.00 | 0.00 | 74 | 1008.0 |
| 20260902082544 | 58 | 300 | 3.0 | 6.0 | 0.00 | 0.00 | 0.00 | 76 | 1008.0 |
| 20260902081604 | 58 | 299 | 3.0 | 6.0 | 0.00 | 0.00 | 0.00 | 77 | 1007.9 |
| 20260902080543 | 58 | 350 | 4.0 | 8.0 | 0.00 | 0.00 | 0.00 | 78 | 1007.9 |
| 20260902075542 | 57 | 335 | 5.0 | 7.0 | 0.00 | 0.00 | 0.00 | 80 | 1007.9 |
| 20260902074601 | 56 | 288 | 5.0 | 7.0 | 0.00 | 0.00 | 0.00 | 82 | 1007.8 |
| 20260902073600 | 56 | 298 | 4.0 | 7.0 | 0.00 | 0.00 | 0.00 | 82 | 1007.8 |
| 20260902072539 | 56 | 304 | 4.0 | 9.0 | 0.00 | 0.00 | 0.00 | 83 | 1007.8 |
| 20260902071558 | 56 | 304 | 4.0 | 9.0 | 0.00 | 0.00 | 0.00 | 86 | 1007.7 |
| 20260902070537 | 55 | 299 | 4.0 | 9.0 | 0.00 | 0.00 | 0.00 | 86 | 1007.6 |
| 20260902065536 | 54 | 285 | 4.0 | 8.0 | 0.00 | 0.00 | 0.00 | 89 | 1007.6 |
| 20260902064535 | 54 | 285 | 5.0 | 8.0 | 0.00 | 0.00 | 0.00 | 90 | 1007.5 |
| 20260902063534 | 54 | 309 | 5.0 | 8.0 | 0.00 | 0.00 | 0.00 | 90 | 1007.5 |
| 20260902062532 | 53 | 328 | 5.0 | 9.0 | 0.00 | 0.00 | 0.00 | 90 | 1007.4 |
| 20260902061532 | 53 | 322 | 4.0 | 8.0 | 0.00 | 0.00 | 0.00 | 91 | 1007.4 |
| 20260902060530 | 52 | 330 | 6.0 | 10.0 | 0.00 | 0.00 | 0.00 | 92 | 1007.4 |
| 20260902055529 | 52 | 333 | 6.0 | 11.0 | 0.00 | 0.00 | 0.00 | 93 | 1007.4 |
| 20260902054528 | 52 | 331 | 6.0 | 11.0 | 0.00 | 0.00 | 0.00 | 94 | 1007.3 |
| 20260902053528 | 52 | 324 | 6.0 | 10.0 | 0.00 | 0.00 | 0.00 | 96 | 1007.3 |
| 20260902052526 | 52 | 312 | 4.0 | 9.0 | 0.00 | 0.00 | 0.00 | 97 | 1007.2 |
| 20260902051525 | 52 | 325 | 4.0 | 9.0 | 0.00 | 0.00 | 0.00 | 98 | 1007.3 |
| 20260902050524 | 51 | 304 | 5.0 | 11.0 | 0.00 | 0.00 | 0.00 | 99 | 1007.3 |
| 20260902045523 | 51 | 319 | 5.0 | 10.0 | 0.00 | 0.00 | 0.00 | 99 | 1007.3 |
| 20260902044524 | 51 | 313 | 5.0 | 11.0 | 0.00 | 0.00 | 0.00 | 99 | 1007.3 |
| 20260902043523 | 51 | 327 | 6.0 | 11.0 | 0.00 | 0.00 | 0.00 | 99 | 1007.3 |
| 20260902042522 | 52 | 306 | 5.0 | 10.0 | 0.00 | 0.00 | 0.00 | 99 | 1007.2 |
| 20260902041521 | 52 | 314 | 5.0 | 10.0 | 0.00 | 0.00 | 0.00 | 99 | 1007.2 |
| 20260902040520 | 52 | 285 | 4.0 | 9.0 | 0.00 | 0.00 | 0.00 | 99 | 1007.2 |
| 20260902035519 | 52 | 270 | 5.0 | 8.0 | 0.00 | 0.00 | 0.00 | 99 | 1007.2 |
| 20260902034518 | 52 | 264 | 6.0 | 10.0 | 0.00 | 0.00 | 0.00 | 99 | 1007.1 |
| 20260902033517 | 52 | 279 | 5.0 | 10.0 | 0.00 | 0.00 | 0.00 | 99 | 1007.0 |
| 20260902032546 | 52 | 282 | 4.0 | 7.0 | 0.00 | 0.00 | 0.00 | 99 | 1007.0 |
| 20260902031545 | 53 | 281 | 6.0 | 9.0 | 0.00 | 0.00 | 0.00 | 99 | 1007.0 |
| 20260902030544 | 53 | 273 | 5.0 | 8.0 | 0.00 | 0.00 | 0.00 | 99 | 1006.9 |
| 20260902025542 | 53 | 271 | 5.0 | 8.0 | 0.00 | 0.00 | 0.00 | 99 | 1007.0 |
| 20260902024542 | 54 | 273 | 5.0 | 7.0 | 0.00 | 0.00 | 0.00 | 99 | 1007.0 |
| 20260902023542 | 54 | 269 | 5.0 | 8.0 | 0.00 | 0.00 | 0.00 | 99 | 1006.9 |
| 20260902022540 | 54 | 263 | 5.0 | 7.0 | 0.00 | 0.00 | 0.00 | 99 | 1006.9 |
| 20260902021539 | 54 | 270 | 4.0 | 6.0 | 0.00 | 0.00 | 0.00 | 99 | 1006.9 |
| 20260902020538 | 54 | 268 | 4.0 | 6.0 | 0.00 | 0.00 | 0.00 | 99 | 1006.9 |
| 20260902015538 | 55 | 269 | 4.0 | 6.0 | 0.00 | 0.00 | 0.00 | 99 | 1006.9 |
| 20260902014616 | 55 | 283 | 4.0 | 8.0 | 0.00 | 0.00 | 0.00 | 99 | 1006.9 |
| 20260902013615 | 55 | 282 | 4.0 | 8.0 | 0.00 | 0.00 | 0.00 | 99 | 1006.9 |
| 20260902012534 | 55 | 283 | 4.0 | 7.0 | 0.00 | 0.00 | 0.00 | 99 | 1006.9 |
| 20260902011533 | 55 | 280 | 3.0 | 6.0 | 0.00 | 0.00 | 0.00 | 99 | 1006.8 |
| 20260902010532 | 55 | 277 | 3.0 | 6.0 | 0.00 | 0.00 | 0.00 | 99 | 1006.9 |
| 20260902005531 | 55 | 266 | 3.0 | 6.0 | 0.00 | 0.00 | 0.00 | 99 | 1006.8 |
| 20260902004610 | 55 | 266 | 4.0 | 7.0 | 0.00 | 0.00 | 0.00 | 99 | 1006.9 |
| 20260902003529 | 56 | 266 | 4.0 | 5.0 | 0.00 | 0.00 | 0.00 | 99 | 1006.9 |
| 20260902002528 | 56 | 267 | 4.0 | 5.0 | 0.00 | 0.00 | 0.00 | 99 | 1006.8 |
| 20260902001547 | 56 | 273 | 3.0 | 6.0 | 0.00 | 0.00 | 0.00 | 99 | 1006.8 |
| 20260902000528 | 56 | 279 | 3.0 | 5.0 | 0.00 | 0.00 | 0.00 | 99 | 1006.8 |
| 20260901235526 | 56 | 267 | 3.0 | 5.0 | 0.00 | 0.00 | 0.00 | 98 | 1006.8 |
| 20260901234525 | 56 | 274 | 3.0 | 5.0 | 0.00 | 0.00 | 0.00 | 99 | 1006.9 |
| 20260901233524 | 56 | 278 | 3.0 | 5.0 | 0.00 | 0.00 | 0.00 | 99 | 1007.0 |
| 20260901232543 | 56 | 273 | 3.0 | 6.0 | 0.00 | 0.00 | 0.00 | 98 | 1007.1 |
| 20260901231522 | 56 | 268 | 4.0 | 7.0 | 0.00 | 0.00 | 0.00 | 98 | 1007.1 |
| 20260901230521 | 56 | 273 | 4.0 | 7.0 | 0.00 | 0.00 | 0.00 | 98 | 1007.1 |
| 20260901225520 | 56 | 267 | 4.0 | 6.0 | 0.00 | 0.00 | 0.00 | 98 | 1007.2 |
| 20260901224519 | 57 | 269 | 3.0 | 5.0 | 0.00 | 0.00 | 0.00 | 98 | 1007.3 |
| 20260901223518 | 57 | 271 | 3.0 | 5.0 | 0.00 | 0.00 | 0.00 | 98 | 1007.2 |
| 20260901222517 | 57 | 265 | 4.0 | 6.0 | 0.00 | 0.00 | 0.00 | 98 | 1007.1 |
| 20260901221516 | 57 | 265 | 4.0 | 6.0 | 0.00 | 0.00 | 0.00 | 98 | 1007.2 |
| 20260901220545 | 57 | 260 | 4.0 | 6.0 | 0.00 | 0.00 | 0.00 | 98 | 1007.2 |
| 20260901215624 | 57 | 268 | 4.0 | 6.0 | 0.00 | 0.00 | 0.00 | 98 | 1007.1 |
| 20260901214544 | 57 | 280 | 3.0 | 7.0 | 0.00 | 0.00 | 0.00 | 98 | 1007.1 |
| 20260901213543 | 58 | 263 | 4.0 | 7.0 | 0.00 | 0.00 | 0.00 | 97 | 1007.1 |
| 20260901212541 | 58 | 246 | 5.0 | 7.0 | 0.00 | 0.00 | 0.00 | 97 | 1007.2 |
| 20260901211540 | 58 | 239 | 5.0 | 8.0 | 0.00 | 0.00 | 0.00 | 96 | 1007.1 |
| 20260901210559 | 58 | 235 | 6.0 | 9.0 | 0.00 | 0.00 | 0.00 | 96 | 1007.1 |
| 20260901205538 | 58 | 235 | 6.0 | 9.0 | 0.00 | 0.00 | 0.00 | 96 | 1007.2 |
| 20260901204537 | 58 | 235 | 7.0 | 9.0 | 0.00 | 0.00 | 0.00 | 96 | 1007.1 |
| 20260901203536 | 59 | 227 | 6.0 | 9.0 | 0.00 | 0.00 | 0.00 | 96 | 1007.1 |
| 20260901202535 | 59 | 227 | 6.0 | 8.0 | 0.00 | 0.00 | 0.00 | 96 | 1007.2 |
| 20260901201534 | 59 | 223 | 5.0 | 8.0 | 0.00 | 0.00 | 0.00 | 95 | 1007.2 |
| 20260901200533 | 59 | 225 | 5.0 | 9.0 | 0.00 | 0.00 | 0.00 | 94 | 1007.1 |
| 20260901195553 | 59 | 219 | 6.0 | 9.0 | 0.00 | 0.00 | 0.00 | 94 | 1007.1 |
| 20260901194551 | 59 | 202 | 4.0 | 7.0 | 0.00 | 0.00 | 0.00 | 96 | 1007.1 |
| 20260901193530 | 60 | 192 | 4.0 | 6.0 | 0.00 | 0.00 | 0.00 | 94 | 1007.1 |
| 20260901192549 | 60 | 202 | 4.0 | 6.0 | 0.00 | 0.00 | 0.00 | 94 | 1007.1 |
| 20260901191529 | 60 | 190 | 4.0 | 7.0 | 0.00 | 0.01 | 0.00 | 94 | 1007.1 |
| 20260901190527 | 60 | 192 | 4.0 | 7.0 | 0.00 | 0.02 | 0.00 | 93 | 1007.1 |
| 20260901185526 | 60 | 180 | 4.0 | 5.0 | 0.00 | 0.03 | 0.00 | 93 | 1007.1 |
| 20260901184525 | 61 | 190 | 4.0 | 6.0 | 0.00 | 0.03 | 0.00 | 91 | 1007.1 |
| 20260901183524 | 61 | 206 | 4.0 | 6.0 | 0.00 | 0.03 | 0.00 | 89 | 1007.1 |
| 20260901182523 | 61 | 208 | 4.0 | 6.0 | 0.00 | 0.03 | 0.00 | 90 | 1007.1 |
| 20260901181523 | 62 | 197 | 4.0 | 7.0 | 0.00 | 0.03 | 0.00 | 88 | 1007.2 |
| 20260901180521 | 62 | 198 | 5.0 | 7.0 | 0.00 | 0.03 | 0.00 | 87 | 1007.2 |
| 20260901175520 | 62 | 195 | 4.0 | 7.0 | 0.00 | 0.03 | 0.00 | 86 | 1007.2 |
| 20260901174521 | 62 | 198 | 4.0 | 8.0 | 0.00 | 0.03 | 0.00 | 84 | 1007.3 |
| 20260901173520 | 62 | 198 | 5.0 | 8.0 | 0.00 | 0.03 | 0.00 | 84 | 1007.3 |
| 20260901172519 | 63 | 200 | 4.0 | 8.0 | 0.00 | 0.03 | 0.00 | 83 | 1007.3 |
| 20260901171518 | 63 | 209 | 4.0 | 6.0 | 0.00 | 0.03 | 0.00 | 82 | 1007.2 |
| 20260901170607 | 63 | 198 | 3.0 | 6.0 | 0.00 | 0.03 | 0.00 | 79 | 1007.1 |
| 20260901165546 | 64 | 201 | 4.0 | 6.0 | 0.00 | 0.03 | 0.00 | 77 | 1007.1 |
| 20260901164545 | 64 | 211 | 4.0 | 7.0 | 0.00 | 0.03 | 0.00 | 78 | 1007.1 |
| 20260901163544 | 64 | 228 | 3.0 | 5.0 | 0.00 | 0.03 | 0.00 | 77 | 1007.1 |
| 20260901162543 | 64 | 236 | 4.0 | 6.0 | 0.00 | 0.03 | 0.00 | 76 | 1007.1 |
| 20260901161542 | 65 | 223 | 5.0 | 8.0 | 0.00 | 0.03 | 0.00 | 75 | 1007.2 |
| 20260901160601 | 66 | 229 | 5.0 | 8.0 | 0.00 | 0.03 | 0.00 | 73 | 1007.2 |
| 20260901155540 | 66 | 225 | 6.0 | 10.0 | 0.00 | 0.03 | 0.00 | 72 | 1007.2 |
| 20260901154539 | 66 | 223 | 6.0 | 9.0 | 0.00 | 0.03 | 0.00 | 72 | 1007.2 |
| 20260901153538 | 65 | 220 | 5.0 | 9.0 | 0.00 | 0.03 | 0.00 | 76 | 1007.3 |
| 20260901152537 | 66 | 213 | 5.0 | 8.0 | 0.00 | 0.03 | 0.00 | 76 | 1007.3 |
| 20260901151537 | 66 | 220 | 5.0 | 7.0 | 0.00 | 0.03 | 0.00 | 75 | 1007.3 |
| 20260901150535 | 65 | 237 | 5.0 | 10.0 | 0.00 | 0.03 | 0.00 | 78 | 1007.4 |
| 20260901145534 | 65 | 242 | 5.0 | 10.0 | 0.00 | 0.03 | 0.00 | 77 | 1007.4 |
| 20260901144533 | 65 | 245 | 7.0 | 12.0 | 0.00 | 0.03 | 0.00 | 76 | 1007.4 |
| 20260901143532 | 66 | 232 | 7.0 | 12.0 | 0.00 | 0.03 | 0.00 | 74 | 1007.5 |
| 20260901142531 | 67 | 233 | 7.0 | 12.0 | 0.00 | 0.03 | 0.00 | 70 | 1007.4 |
| 20260901141550 | 66 | 217 | 7.0 | 12.0 | 0.00 | 0.03 | 0.00 | 71 | 1007.4 |
| 20260901140549 | 67 | 240 | 9.0 | 15.0 | 0.00 | 0.03 | 0.00 | 71 | 1007.5 |
| 20260901135528 | 67 | 215 | 9.0 | 15.0 | 0.00 | 0.03 | 0.00 | 72 | 1007.6 |
| 20260901134547 | 65 | 200 | 7.0 | 12.0 | 0.00 | 0.03 | 0.00 | 75 | 1007.6 |
| 20260901133527 | 65 | 213 | 7.0 | 12.0 | 0.00 | 0.03 | 0.00 | 77 | 1007.6 |
| 20260901132526 | 65 | 215 | 6.0 | 9.0 | 0.00 | 0.03 | 0.00 | 78 | 1007.6 |
| 20260901131526 | 65 | 207 | 8.0 | 12.0 | 0.00 | 0.03 | 0.00 | 76 | 1007.6 |
| 20260901130524 | 66 | 196 | 7.0 | 12.0 | 0.00 | 0.03 | 0.00 | 74 | 1007.7 |
| 20260901125523 | 66 | 189 | 7.0 | 12.0 | 0.00 | 0.03 | 0.00 | 76 | 1007.7 |
| 20260901124522 | 66 | 207 | 7.0 | 13.0 | 0.00 | 0.03 | 0.00 | 77 | 1007.7 |
| 20260901123521 | 65 | 201 | 7.0 | 13.0 | 0.00 | 0.03 | 0.00 | 76 | 1007.7 |
| 20260901122520 | 65 | 213 | 9.0 | 15.0 | 0.00 | 0.06 | 0.00 | 76 | 1007.7 |
| 20260901121519 | 66 | 218 | 9.0 | 15.0 | 0.00 | 0.06 | 0.00 | 75 | 1007.8 |
| 20260901120518 | 65 | 216 | 8.0 | 14.0 | 0.00 | 0.06 | 0.00 | 75 | 1007.8 |
| 20260901115517 | 65 | 207 | 8.0 | 13.0 | 0.00 | 0.07 | 0.00 | 76 | 1007.8 |
| 20260901114516 | 65 | 200 | 9.0 | 14.0 | 0.00 | 0.07 | 0.00 | 75 | 1007.8 |
| 20260901113545 | 66 | 214 | 9.0 | 14.0 | 0.00 | 0.07 | 0.00 | 74 | 1007.9 |
| 20260901112544 | 65 | 210 | 7.0 | 12.0 | 0.00 | 0.07 | 0.00 | 76 | 1007.9 |
| 20260901111543 | 65 | 218 | 10.0 | 15.0 | 0.00 | 0.07 | 0.00 | 76 | 1007.9 |
| 20260901110542 | 64 | 206 | 9.0 | 17.0 | 0.00 | 0.07 | 0.00 | 76 | 1007.9 |
| 20260901105541 | 65 | 205 | 8.0 | 16.0 | 0.00 | 0.07 | 0.00 | 74 | 1007.9 |